STARLINK-11482, 62520

Orbit data source: Space-Track

STARLINK-11482, 62520 is a payload satellite owned by SpaceX/Seattle (US) in LEO that was launched on Wed, 08 Jan 2025 UTC via an FALCON 9 launch vehicle from the Air Force Eastern Test Range (AFETR). Payload-class satellites include a variety of spacecraft equipped with specific instruments for various scientific and technological missions. These include communications satellites like Starlink; space stations such as the ISS; scientific satellites like the Hubble; Earth observation satellites from companies like Planet Labs, Umbra, and HawkEye 360; GPS; miniature CubeSats for education and research; and military/defense satellites.

Loading next visibility...
Identifier
62520, 2025-004K
Orbit
LEO
Country
Flag of USUS
Related business
Manufacturer
SpaceX/Seattle
Mission
Operational Commercial Communications
Bus & Motor
STARLINK V2MD, Unknown motor
Mass
960 kg wet, ~910 kg dry
Launch date (UTC)
2025-01-08 (2 years ago)
Launch vehicle
FALCON 9
Launch site
Air Force Eastern Test Range (AFETR)
Object type
Payload
Rocket body
Debris
Shape & HBR
Box + 2 Pan, 18.1 m
Radar Cross Section
36.964 m², Large (>1 m²)

Expand to show TLE details & history
Last TLE update: 10 hours ago

TLE from 10 hours ago
0 STARLINK-11482
1 62520U 25004K   26254.74340293  .00110265  00000-0  85083-3 0  9999
2 62520  43.0003  28.9257 0001949 276.0456  84.0190 15.70857117 96473
Epoch: 2026-09-11T17:50Z
TLE epoch observation values (Epoch: 2026-09-11T17:50:30.013Z)
Latitude
0.00003°
Longitude
130.5383°
Altitude
356.081 km
Speed
7.697 km/s
True Right ascension
01h 55m 42s
True Declination
0° 00' 00"
Sunlit
Object was in full shadow at epoch
Visualization orbit readout
Latitude
Unknown
Longitude
Unknown
Altitude
Unknown
Speed
Unknown
Apparent Right ascension
Unknown
Apparent Declination
Unknown
Sunlit
N/A
Visualization observer readout
Local Sidereal Time
20:05:37
Azimuth
Unknown
Elevation
Unknown
Doppler factor
Unknown
Orbital elements
Apogee altitude
359.741 km
Perigee altitude
357.115 km
Semi-major axis
6,736.565 km
Eccentricity
0.00019
Inclination
43.0003°
RAAN
28.9257°
Arg. of periapsis
276.0456°
True anomaly
84.04121°
Mean anomaly
84.019°
Eccentric anomaly
84.03011°
Mean motion
3.92541 °/min
Orbital period
91.71 mins
BSTAR
0.00085083
Loading maneuver chart data...
Computing Atmospheric mass density...
Loading historical data...
Loading historical data...
Loading historical data...
Loading historical data...
Loading historical data...
Loading historical data...
Loading historical data...

Documentation

Showing up to 5 results
|